Temp
14 13 13 14 14 14 14 13 13 13 13 13 12 12 11 11 11 11 10 10 10 9 9 8 8 8 7 7 7 7 6 6 6 5 4 4 4 4 4 4 4 4 4
14 13 13 13 14 14 14 13 13 13 13 13 12 12 12 12 11 11 10 10 10 10 9 8 8 8 7 7 6 6 6 6 6 4 5 4 4 4 4 4 3 3 3
15 14 14 13 14 14 14 14 13 13 13 13 12 12 12 12 12 11 11 10 10 10 9 8 7 7 7 6 6 6 6 5 5 4 4 4 3 3 4 4 3 3 3
15 16 15 14 15 15 14 14 14 13 13 13 13 12 12 12 12 11 11 11 10 10 10 9 8 7 6 6 6 6 5 5 4 4 3 4 3 3 3 3 3 2 2
16 16 16 15 15 15 15 14 14 14 14 13 13 13 13 12 12 12 12 11 11 10 10 9 9 8 7 6 6 6 5 5 4 4 4 5 4 3 3 3 3 2 3
16 17 17 16 15 15 15 15 14 14 14 13 13 13 13 13 13 12 12 11 11 10 10 9 9 8 8 7 6 5 5 5 5 5 5 4 4 3 2 2 2 3 3
16 17 17 16 16 15 15 15 15 15 14 14 14 14 13 13 13 13 12 11 11 10 10 10 10 9 8 7 5 5 5 4 5 5 5 4 4 3 2 2 2 3 3
17 17 16 16 16 16 15 15 15 15 15 15 14 14 14 13 13 12 12 11 11 10 10 10 10 9 8 7 5 4 5 5 4 5 4 3 3 3 2 2 2 2 2
17 17 17 16 16 16 16 16 15 15 15 15 14 14 14 13 13 12 11 11 11 11 10 10 9 9 8 8 5 5 5 5 5 5 3 3 3 2 2 2 2 2 2
17 18 17 17 16 16 15 16 15 15 15 14 14 14 13 13 12 12 12 12 11 11 10 10 9 9 8 8 7 5 5 4 4 4 3 3 3 2 2 2 2 2 2
17 18 18 17 17 16 16 15 15 15 15 14 14 14 13 13 12 12 12 12 12 11 10 10 9 8 8 7 6 5 4 4 4 3 3 2 2 2 1 1 2 2 1
17 17 17 17 17 17 16 15 14 14 15 15 14 13 12 12 12 12 12 11 12 11 9 9 8 7 7 6 6 5 4 4 3 3 2 2 2 2 1 1 1 1 0
17 17 17 17 17 17 17 15 14 14 13 13 13 12 12 12 12 12 11 10 11 9 9 8 8 7 6 6 5 4 4 3 3 3 2 2 2 1 1 1 0 0 0
17 17 17 17 17 17 17 15 14 13 13 13 11 11 11 11 11 12 11 11 10 9 8 8 7 6 6 5 5 4 3 3 2 2 2 2 2 2 2 1 0 0 1
16 16 16 17 17 16 16 15 14 14 12 12 11 10 10 10 10 11 11 10 9 9 8 7 6 6 5 5 5 4 3 3 2 2 2 2 2 1 2 1 1 1 1
16 16 16 16 16 16 15 15 15 13 11 10 10 9 9 7 9 8 10 9 9 9 8 6 6 5 5 4 4 4 3 2 2 1 1 2 2 2 2 1 1 1 1
14 13 16 16 14 15 15 13 12 12 10 9 10 8 6 10 7 8 9 9 8 7 7 6 6 5 4 4 3 3 2 2 1 2 2 2 2 2 2 1 1 1 1
11 10 8 10 9 12 13 11 10 9 8 8 7 9 8 8 8 9 8 8 7 6 6 6 5 4 4 3 3 3 3 2 2 2 2 2 2 2 2 1 1 1 1
10 7 7 6 8 8 10 10 10 10 7 8 7 9 8 9 9 7 6 6 6 6 5 5 4 4 3 3 3 3 2 2 2 2 2 2 2 2 2 1 1 0 0
7 4 5 5 6 8 9 9 9 9 8 8 9 7 8 7 7 6 5 5 5 5 4 4 4 3 3 3 3 3 3 3 2 2 2 2 2 2 2 1 1 0 -0
6 6 6 7 8 8 8 8 8 7 7 7 6 7 8 7 6 5 4 4 4 4 4 4 3 3 3 3 3 3 3 3 3 2 2 2 2 2 2 1 1 0 0
7 7 7 7 7 7 8 7 7 7 7 6 6 6 5 5 5 4 4 4 3 3 3 3 3 3 3 3 3 3 3 2 2 2 2 2 2 2 1 1 1 0 -0
6 6 6 7 7 7 7 6 6 5 5 5 4 4 4 4 4 4 3 3 2 3 3 3 4 3 3 3 3 3 3 2 2 2 2 2 2 2 1 1 1 0 -0
6 6 6 5 5 4 4 4 4 4 3 3 3 3 3 3 2 2 2 2 3 3 3 3 3 3 3 2 3 3 3 3 3 3 3 2 2 1 1 1 0 -0 -0
4 4 5 4 4 3 3 3 4 3 3 3 3 3 3 3 2 2 2 2 3 2 2 2 2 1 -0 2 3 3 2 3 3 3 3 2 2 1 1 0 0 -0 -0
3 3 3 3 3 3 3 3 2 3 3 2 2 2 2 2 2 2 2 2 2 2 1 1 1 -1 -0 0 1 1 1 2 2 2 3 3 2 1 1 0 -0 -1 -1
Height
3153 3156 3159 3161 3164 3167 3170 3173 3176 3178 3181 3183 3186 3188 3190 3193 3194 3196 3197 3197 3197 3196 3195 3194 3194 3193 3193 3191 3190 3188 3186 3184 3185 3185 3183 3183 3182 3180 3178 3177 3176 3174 3172
3150 3151 3154 3156 3158 3161 3165 3169 3172 3174 3177 3180 3182 3184 3186 3188 3190 3192 3194 3194 3194 3193 3191 3190 3190 3189 3188 3187 3185 3184 3182 3181 3179 3179 3177 3176 3176 3174 3174 3173 3171 3169 3168
3144 3146 3148 3150 3151 3154 3159 3164 3167 3170 3173 3175 3178 3180 3182 3183 3186 3188 3189 3190 3190 3189 3188 3186 3186 3184 3183 3182 3180 3178 3176 3175 3174 3173 3172 3172 3171 3170 3170 3168 3166 3165 3163
3137 3140 3141 3143 3147 3150 3154 3158 3161 3165 3168 3171 3173 3175 3177 3180 3181 3183 3184 3185 3185 3184 3183 3181 3179 3178 3178 3177 3176 3174 3171 3170 3168 3168 3167 3167 3166 3163 3163 3162 3160 3158 3158
3130 3132 3134 3138 3142 3145 3148 3152 3157 3159 3163 3167 3168 3170 3172 3174 3176 3177 3178 3178 3178 3177 3176 3176 3174 3173 3172 3170 3170 3169 3167 3164 3162 3161 3160 3159 3158 3157 3155 3153 3152 3152 3151
3123 3125 3128 3132 3136 3138 3141 3145 3149 3153 3157 3160 3162 3164 3166 3168 3170 3171 3172 3171 3170 3170 3170 3170 3168 3167 3165 3164 3162 3162 3161 3159 3157 3157 3154 3153 3152 3149 3147 3146 3145 3143 3142
3116 3119 3121 3125 3128 3131 3134 3138 3141 3145 3149 3152 3154 3155 3157 3160 3163 3165 3165 3164 3163 3164 3163 3162 3160 3159 3159 3157 3156 3155 3154 3152 3150 3148 3147 3145 3144 3142 3141 3140 3138 3135 3133
3109 3112 3114 3118 3121 3124 3127 3130 3133 3137 3140 3143 3146 3148 3151 3154 3156 3158 3157 3156 3155 3157 3157 3155 3153 3152 3151 3149 3148 3148 3147 3147 3145 3143 3141 3140 3138 3136 3135 3132 3130 3128 3126
3100 3104 3107 3111 3113 3115 3118 3122 3125 3128 3132 3135 3137 3141 3144 3147 3149 3149 3148 3147 3149 3149 3148 3146 3146 3144 3142 3140 3139 3139 3140 3140 3138 3136 3135 3135 3133 3131 3127 3125 3123 3119 3117
3093 3097 3100 3103 3106 3108 3111 3114 3117 3120 3123 3125 3129 3133 3135 3137 3139 3139 3140 3140 3141 3142 3141 3139 3140 3138 3135 3132 3131 3132 3133 3134 3132 3131 3129 3128 3126 3125 3122 3119 3115 3112 3108
3088 3092 3093 3095 3098 3101 3104 3106 3109 3111 3114 3116 3120 3123 3126 3128 3130 3132 3133 3133 3134 3134 3133 3133 3132 3130 3128 3125 3125 3125 3126 3126 3126 3125 3124 3122 3120 3118 3116 3113 3108 3103 3099
3080 3083 3086 3088 3091 3092 3094 3096 3099 3102 3104 3106 3110 3112 3115 3118 3120 3123 3123 3126 3129 3127 3127 3126 3125 3123 3122 3119 3118 3118 3119 3120 3120 3119 3117 3116 3114 3112 3108 3105 3101 3097 3093
3071 3074 3076 3078 3082 3082 3084 3085 3088 3090 3093 3095 3098 3101 3104 3107 3110 3112 3114 3119 3121 3120 3118 3118 3117 3114 3114 3112 3111 3111 3112 3113 3113 3113 3111 3109 3107 3105 3103 3099 3096 3091 3088
3062 3065 3067 3067 3069 3071 3074 3076 3079 3083 3082 3084 3089 3091 3094 3096 3097 3102 3104 3109 3110 3110 3110 3111 3110 3108 3106 3105 3105 3105 3107 3107 3107 3107 3105 3102 3100 3097 3094 3092 3089 3085 3082
3048 3050 3052 3055 3056 3058 3062 3062 3064 3066 3069 3075 3080 3078 3079 3083 3087 3091 3097 3097 3100 3103 3103 3103 3102 3102 3101 3099 3096 3097 3099 3101 3100 3100 3098 3096 3094 3093 3088 3084 3082 3079 3075
3033 3032 3032 3037 3043 3047 3050 3049 3048 3054 3060 3063 3064 3060 3056 3064 3077 3090 3095 3091 3093 3094 3093 3094 3094 3095 3095 3094 3093 3091 3093 3094 3093 3092 3092 3090 3088 3086 3084 3080 3076 3073 3069
3011 3011 3015 3017 3022 3031 3034 3038 3035 3032 3047 3052 3052 3046 3048 3063 3076 3082 3086 3081 3082 3084 3084 3086 3086 3087 3089 3089 3088 3086 3087 3087 3086 3085 3085 3084 3082 3081 3079 3075 3071 3068 3064
3002 3001 3007 3006 3009 3012 3014 3022 3016 3018 3031 3033 3047 3048 3057 3062 3073 3073 3072 3071 3074 3079 3079 3080 3080 3082 3081 3083 3080 3079 3080 3080 3081 3080 3080 3078 3076 3074 3072 3069 3065 3062 3059
2979 2970 2969 3001 2993 2963 2997 3009 3018 3021 3028 3035 3035 3043 3047 3058 3058 3061 3063 3066 3069 3070 3073 3074 3075 3075 3074 3074 3072 3073 3073 3073 3075 3075 3075 3073 3071 3067 3065 3063 3060 3057 3055
2966 2960 2962 2990 2992 2973 2983 3011 3011 3017 3023 3032 3034 3036 3046 3052 3051 3054 3056 3060 3062 3065 3068 3068 3068 3067 3067 3065 3065 3066 3065 3066 3068 3069 3068 3065 3063 3062 3060 3057 3054 3053 3050
2983 2983 2983 2991 2986 2992 3001 3012 3013 3018 3027 3032 3036 3039 3043 3043 3043 3046 3050 3055 3057 3058 3059 3059 3060 3060 3058 3058 3058 3059 3060 3060 3061 3061 3060 3059 3058 3057 3055 3053 3051 3049 3047
2987 2988 2991 2993 2990 2996 3006 3015 3019 3024 3029 3032 3034 3035 3036 3039 3040 3041 3044 3049 3052 3052 3051 3053 3053 3052 3050 3050 3051 3053 3055 3055 3055 3054 3056 3056 3054 3053 3051 3050 3048 3046 3043
2992 2992 2993 2993 2998 3004 3008 3013 3019 3025 3026 3026 3028 3032 3033 3035 3036 3039 3039 3043 3045 3045 3046 3047 3046 3045 3043 3043 3044 3047 3048 3050 3051 3050 3050 3051 3051 3049 3048 3046 3044 3043 3040
2993 2993 2995 2997 3000 3003 3007 3011 3016 3018 3019 3023 3024 3025 3028 3030 3032 3035 3037 3038 3038 3038 3038 3038 3038 3037 3036 3038 3040 3043 3045 3044 3044 3045 3046 3045 3046 3045 3043 3041 3040 3039 3037
2994 2995 2996 3000 3003 3006 3009 3013 3015 3019 3019 3020 3021 3023 3026 3027 3028 3031 3031 3032 3032 3032 3032 3032 3031 3031 3032 3034 3036 3037 3038 3038 3039 3039 3040 3041 3041 3040 3038 3037 3036 3035 3033
2992 2994 2997 2999 3001 3003 3005 3009 3009 3011 3010 3011 3014 3015 3018 3022 3023 3024 3025 3026 3026 3026 3027 3027 3027 3028 3028 3030 3030 3031 3031 3033 3034 3035 3035 3034 3034 3034 3033 3032 3031 3030 3030
Wind_Speed
23 21 21 24 26 26 27 22 21 24 27 26 23 20 15 13 13 12 12 14 15 17 20 21 24 23 20 18 16 15 16 17 16 17 14 15 19 19 20 19 18 19 22
25 25 25 23 25 29 29 24 24 26 28 28 26 21 18 15 14 14 16 16 18 20 22 24 24 25 23 22 19 17 19 17 19 24 26 20 22 23 21 20 21 22 25
28 29 28 27 24 29 30 27 25 29 30 30 27 23 20 17 16 18 19 20 20 22 25 26 24 26 24 24 22 21 22 21 24 26 30 27 23 23 21 23 22 25 30
32 32 31 30 24 27 31 29 25 28 32 31 27 24 23 21 22 22 22 22 22 24 27 29 29 28 25 24 23 20 23 23 24 25 27 29 30 26 29 28 27 29 25
34 34 33 31 25 26 32 32 30 30 32 31 29 27 25 23 21 21 22 24 26 27 28 27 28 30 27 24 22 21 23 24 22 22 24 26 29 25 31 28 27 27 29
33 33 32 32 31 30 33 35 34 33 33 33 31 29 27 25 23 24 25 28 30 29 27 22 29 32 28 25 22 22 23 22 25 24 27 24 26 19 23 28 27 28 29
36 33 32 33 36 35 35 40 38 37 36 35 34 33 30 27 26 27 28 30 32 29 25 28 33 34 32 26 23 23 25 24 21 25 27 24 24 22 28 24 27 31 32
38 34 32 30 34 38 37 40 42 42 40 39 37 35 32 30 30 29 30 32 32 26 28 31 35 34 33 28 24 25 25 25 26 27 27 24 24 23 26 29 29 33 35
39 35 34 30 32 36 40 39 44 44 43 41 40 38 36 33 30 30 32 33 28 28 30 35 32 32 30 32 26 25 24 23 24 26 23 23 24 26 29 31 33 38 41
36 33 33 34 34 36 35 42 42 45 44 43 41 38 37 35 32 33 31 31 28 28 33 31 30 29 30 27 24 23 27 23 25 27 25 24 26 30 31 34 38 41 39
34 33 37 32 32 38 37 38 43 45 45 44 43 42 40 36 32 27 25 27 33 32 33 30 28 27 27 24 22 21 21 26 25 24 22 24 27 30 34 37 37 36 33
38 39 34 34 32 31 36 41 41 41 48 50 48 42 36 34 31 24 21 27 36 33 32 30 28 26 24 23 21 18 22 25 24 21 22 26 28 32 35 34 31 30 30
44 43 39 41 43 38 37 38 44 46 44 42 44 41 41 36 31 26 19 37 39 36 33 30 30 25 22 19 19 19 21 22 22 24 23 26 29 30 28 26 25 26 27
47 48 53 52 44 44 44 39 41 47 48 48 40 40 40 37 33 29 31 37 37 34 30 29 25 21 18 19 20 19 20 22 23 22 24 27 26 23 24 26 26 26 26
53 53 54 53 50 48 48 46 45 52 48 43 40 42 41 36 31 27 30 33 32 31 28 23 21 19 19 19 18 17 19 22 21 23 23 23 24 25 26 28 28 28 29
55 56 56 53 54 51 50 52 46 48 43 43 42 40 31 26 21 30 31 28 28 25 21 19 19 18 18 17 16 16 18 20 21 22 22 23 23 25 26 26 27 28 29
57 54 64 63 57 63 53 50 47 41 48 47 43 31 10 14 19 26 25 21 20 20 17 18 18 17 17 15 15 15 18 21 20 20 21 21 22 24 25 25 26 26 25
56 63 55 38 46 57 57 42 38 40 29 31 31 27 28 16 22 19 19 20 20 20 18 16 15 15 15 15 15 17 19 18 19 20 20 21 20 21 23 24 24 23 23
37 30 88 45 38 54 43 37 49 59 44 26 24 25 22 26 26 21 19 22 17 14 15 15 15 16 15 16 16 16 16 17 19 19 19 19 19 20 22 21 20 22 21
17 12 11 31 14 13 18 15 19 23 25 24 25 25 25 21 16 17 14 15 14 15 15 16 15 14 15 16 15 15 15 16 17 17 17 18 19 21 20 19 19 19 21
10 12 12 13 17 16 16 12 11 15 22 23 23 22 20 17 14 13 15 15 14 13 13 12 12 14 15 15 14 15 15 16 16 15 16 18 20 20 19 18 18 19 21
7 7 9 9 9 12 15 16 17 19 20 19 19 17 15 15 14 13 12 10 10 10 10 12 14 14 15 15 14 15 16 18 16 14 17 19 20 19 18 17 17 18 20
4 4 3 4 8 12 12 12 14 13 11 11 13 17 13 12 15 13 11 8 9 10 11 15 14 12 13 15 15 16 17 18 15 14 16 18 18 17 16 16 15 17 18
6 8 8 7 10 9 7 11 14 12 10 11 10 11 13 9 9 12 12 15 15 16 15 15 14 12 11 12 17 18 17 16 13 14 15 16 17 16 14 15 14 15 17
25 17 13 9 14 11 5 8 10 15 13 11 15 13 14 15 14 14 15 14 17 17 17 14 12 12 15 15 17 18 16 14 13 14 15 15 16 15 13 13 13 14 16
14 19 19 20 17 17 18 19 17 21 20 15 24 18 12 13 15 19 19 20 18 17 16 14 14 14 14 14 16 16 15 14 13 15 15 15 14 14 13 12 12 13 15
Wind_Direction
215 222 234 234 226 221 220 218 215 204 200 194 198 201 202 213 233 252 273 290 304 304 308 313 316 316 314 321 329 324 323 306 295 286 288 278 285 282 281 281 287 299 301
228 223 227 234 224 218 216 215 215 208 202 199 206 211 213 222 238 254 270 285 298 303 305 306 307 312 308 309 312 320 320 301 292 280 281 271 263 272 276 277 282 287 290
230 224 224 229 226 215 212 211 216 209 207 206 209 211 218 229 245 260 269 277 287 296 300 303 305 305 306 303 306 314 312 311 307 314 284 288 266 274 272 276 285 289 290
226 225 227 227 224 216 212 212 216 211 210 213 215 222 228 235 245 254 264 275 284 291 295 299 302 304 301 296 299 306 305 311 312 308 308 284 279 275 273 277 290 288 290
222 223 230 227 223 217 214 216 215 216 214 217 220 225 234 241 248 260 271 279 283 286 288 292 300 299 296 293 289 294 295 304 309 308 303 297 286 280 274 281 290 292 294
223 224 227 224 221 220 214 214 217 219 223 226 229 236 241 246 254 264 273 278 280 280 281 281 288 290 296 291 281 283 288 289 302 302 303 300 288 282 292 298 290 289 292
225 223 226 225 222 223 221 217 218 222 226 230 233 239 245 252 261 271 273 272 273 275 269 282 289 291 292 291 282 277 278 282 287 290 296 290 285 284 294 293 292 295 296
231 223 223 223 227 225 225 224 223 225 226 228 233 240 246 253 261 266 267 265 268 266 264 279 284 291 293 286 277 274 278 292 281 289 289 285 288 291 292 291 292 298 302
233 223 225 224 229 230 230 228 225 228 231 232 235 240 248 253 258 259 259 264 261 256 262 269 283 291 292 291 282 273 268 276 276 291 287 292 290 295 294 294 297 301 303
227 225 227 229 229 235 236 233 231 232 233 235 239 244 249 251 251 255 262 261 250 256 266 276 286 286 287 288 283 269 274 271 270 282 283 293 293 293 292 295 300 300 298
233 229 240 231 232 235 235 235 236 235 236 238 239 242 247 248 248 255 265 267 263 271 270 286 283 282 283 284 275 271 271 267 276 277 278 283 293 295 295 299 301 301 301
237 240 237 238 245 240 236 232 233 236 236 240 242 240 235 237 239 236 249 260 266 271 283 280 279 279 281 279 278 268 263 265 275 272 281 291 293 296 299 302 299 300 302
232 235 246 243 250 252 248 240 232 232 238 239 237 232 236 235 230 234 254 258 263 270 276 274 279 279 277 275 271 273 271 270 276 286 289 291 298 301 299 299 297 300 302
244 252 255 243 248 251 247 244 237 239 236 240 239 236 234 232 226 265 281 250 259 268 269 273 275 271 271 266 270 269 266 275 282 285 289 297 300 299 300 301 304 303 301
247 248 249 246 246 244 243 243 241 235 234 239 243 237 235 224 243 233 236 247 259 261 265 268 266 270 262 262 260 266 273 277 280 285 290 296 294 299 303 303 304 304 306
251 248 237 243 249 246 243 242 244 244 242 235 235 243 222 205 237 253 254 254 257 263 265 260 264 260 257 258 265 274 277 278 280 282 287 291 294 300 301 301 300 302 306
250 254 245 242 243 246 234 242 240 237 240 236 233 254 287 232 233 241 252 263 264 259 258 266 256 255 260 269 275 278 277 277 277 283 290 295 298 298 297 296 298 302 305
263 264 255 252 257 242 228 230 239 225 235 246 264 287 231 214 227 245 256 256 249 263 259 250 254 259 265 270 276 275 270 269 279 284 287 290 294 295 295 299 302 302 309
266 269 246 240 242 212 212 231 249 265 257 236 205 200 190 215 226 225 230 258 248 245 244 249 254 260 269 273 268 264 266 272 276 281 285 290 296 298 300 301 301 307 313
7 42 225 204 194 203 207 187 162 165 174 191 192 192 202 210 240 234 223 224 234 239 246 255 260 267 266 262 259 267 272 275 282 283 294 303 304 305 307 305 305 309 316
81 107 129 143 140 145 159 183 188 189 188 185 186 192 221 235 214 205 210 218 228 242 256 266 269 266 259 261 272 280 280 283 285 293 298 300 303 306 304 301 305 310 316
99 107 128 143 159 173 173 173 183 191 194 196 206 214 203 197 205 200 206 219 237 252 271 278 266 263 263 268 273 275 280 284 289 298 298 295 295 296 296 299 302 309 317
197 192 170 176 186 185 189 179 173 178 204 234 217 213 210 191 191 203 216 247 278 284 275 274 267 266 262 264 269 272 274 278 282 288 286 284 285 286 289 290 299 310 319
235 240 245 244 242 257 234 200 177 175 179 201 205 197 198 197 209 236 254 275 283 294 293 283 272 269 265 255 259 263 267 268 272 277 282 284 281 280 283 288 299 310 315
273 275 249 213 192 179 204 218 222 222 230 227 222 215 218 230 239 252 262 272 288 291 292 286 272 269 283 273 261 265 266 265 270 276 281 281 278 278 279 284 295 304 311
228 231 236 221 228 236 263 272 247 241 231 249 232 211 220 244 274 275 259 270 281 287 283 275 266 261 272 273 275 273 266 262 263 269 275 281 281 280 276 275 283 293 304